Satellite-Ground Cal/Val Region Overpasses Predictions

Prediction of Satellite NPP Overpassing Cal/Val Region: PacNW

Region Location: (Latitude: 10.00, Longitude: 139.50) to (Latitude: 22.70, Longitude: 165.60).

Table of predicted overpasses for the next 14.0 days since TLE Epoch: 5/19/2013
Interval Starting Time Starting Location Ending Time Ending Location
1 05/19/2013 14:58:11 ( 22.67, 160.16) 05/19/2013 15:01:46 ( 10.05, 157.15)
2 05/20/2013 02:09:47 ( 18.86, 165.59) 05/20/2013 02:10:52 ( 22.67, 164.66)
3 05/20/2013 03:48:45 ( 10.00, 142.30) 05/20/2013 03:52:05 ( 21.74, 139.51)
4 05/20/2013 14:39:09 ( 22.65, 164.91) 05/20/2013 14:42:44 ( 10.03, 161.91)
5 05/20/2013 16:20:39 ( 22.65, 139.54) 05/20/2013 16:20:41 ( 22.53, 139.51)
6 05/21/2013 03:29:44 ( 10.02, 147.06) 05/21/2013 03:33:20 ( 22.69, 144.04)
7 05/21/2013 16:01:37 ( 22.69, 144.31) 05/21/2013 16:05:13 ( 10.01, 141.29)
8 05/22/2013 03:10:43 ( 10.03, 151.81) 05/22/2013 03:14:18 ( 22.65, 148.81)
9 05/22/2013 15:42:35 ( 22.67, 149.06) 05/22/2013 15:46:10 ( 10.05, 146.06)
10 05/23/2013 02:51:41 ( 10.05, 156.57) 05/23/2013 02:55:16 ( 22.67, 153.56)
11 05/23/2013 15:23:34 ( 22.66, 153.82) 05/23/2013 15:27:09 ( 10.04, 150.81)
12 05/24/2013 02:32:39 ( 10.01, 161.34) 05/24/2013 02:36:15 ( 22.68, 158.32)
13 05/24/2013 15:04:31 ( 22.70, 158.59) 05/24/2013 15:08:07 ( 10.02, 155.57)
14 05/25/2013 02:14:14 ( 12.20, 165.59) 05/25/2013 02:17:12 ( 22.64, 163.09)
15 05/25/2013 03:55:07 ( 10.03, 140.72) 05/25/2013 03:56:36 ( 15.26, 139.51)
16 05/25/2013 14:45:30 ( 22.68, 163.35) 05/25/2013 14:49:05 ( 10.06, 160.34)
17 05/26/2013 03:36:06 ( 10.05, 145.47) 05/26/2013 03:39:41 ( 22.67, 142.47)
18 05/26/2013 14:29:26 ( 12.21, 165.59) 05/26/2013 14:30:03 ( 10.04, 165.09)
19 05/26/2013 16:07:58 ( 22.66, 142.72) 05/26/2013 16:11:33 ( 10.03, 139.72)
20 05/27/2013 03:17:03 ( 10.01, 150.24) 05/27/2013 03:20:39 ( 22.69, 147.22)
21 05/27/2013 15:48:56 ( 22.69, 147.49) 05/27/2013 15:52:32 ( 10.01, 144.47)
22 05/28/2013 02:58:02 ( 10.03, 155.00) 05/28/2013 03:01:37 ( 22.65, 151.99)
23 05/28/2013 15:29:55 ( 22.67, 152.25) 05/28/2013 15:33:30 ( 10.05, 149.24)
24 05/29/2013 02:39:00 ( 10.05, 159.75) 05/29/2013 02:42:35 ( 22.67, 156.75)
25 05/29/2013 15:10:53 ( 22.65, 157.00) 05/29/2013 15:14:28 ( 10.03, 154.00)
26 05/30/2013 02:19:58 ( 10.01, 164.52) 05/30/2013 02:23:34 ( 22.69, 161.50)
27 05/30/2013 14:51:51 ( 22.69, 161.77) 05/30/2013 14:55:27 ( 10.01, 158.75)
28 05/31/2013 03:42:26 ( 10.04, 143.90) 05/31/2013 03:46:01 ( 22.66, 140.89)
29 05/31/2013 14:33:54 ( 18.86, 165.59) 05/31/2013 14:36:24 ( 10.05, 163.52)
30 05/31/2013 16:14:19 ( 22.66, 141.15) 05/31/2013 16:16:14 ( 15.92, 139.51)
31 06/01/2013 03:23:24 ( 10.00, 148.67) 06/01/2013 03:27:00 ( 22.68, 145.65)
32 06/01/2013 15:55:17 ( 22.70, 145.92) 06/01/2013 15:58:53 ( 10.02, 142.90)


NCC Satellite Cal/Val Overpasses Prediction Service
